Tracking 26325 objects as of 29-Nov-2022
HD Live streaming from Space Station
objects crossing your sky now

COSMOS 1375 DEB

Track COSMOS 1375 DEB now!
10-day predictions


NORAD ID: 17797
Int'l Code: 1982-055AP
Perigee: 934.6 km
Apogee: 950.7 km
Inclination: 65.8 °
Period: 103.7 minutes
Semi major axis: 7313 km
RCS: 0.0324 m2 (small)
Launch date: June 6, 1982
Source: Commonwealth of Independent States (former USSR) (CIS)
Launch site: PLESETSK MISSILE AND SPACE COMPLEX (PKMTR)

Note: This is SATELLITE DEBRIS
aabbcc
Your satellite tracking list
Your tracking list is empty




NASA's NSSDC Master Catalog

Two Line Element Set (TLE):
1 17797U 82055AP  22332.76615824  .00000453  00000-0  44922-3 0  9998
2 17797  65.8282 338.1694 0011006 204.5233 330.9144 13.88040671871698
Source of the keplerian elements: AFSPC